| time (UTC) | temp F | wind direction | speed MPH | gust MPH | rain 1hr in | rain 24hr in | rain mn in | humidity % | barometer mb |
| 20260503211531 | 49 | 215 | 1.0 | 9.0 | 0.00 | 0.00 | 0.00 | 52 | 1015.6 |
| 20260503210529 | 49 | 194 | 1.0 | 6.0 | 0.00 | 0.00 | 0.00 | 51 | 1015.7 |
| 20260503205527 | 49 | 225 | 1.0 | 2.0 | 0.00 | 0.00 | 0.00 | 50 | 1015.8 |
| 20260503204526 | 50 | 220 | 2.0 | 11.0 | 0.00 | 0.00 | 0.00 | 49 | 1015.9 |
| 20260503203543 | 50 | 207 | 1.0 | 9.0 | 0.00 | 0.00 | 0.00 | 50 | 1016.0 |
| 20260503202521 | 50 | 217 | 1.0 | 2.0 | 0.00 | 0.00 | 0.00 | 50 | 1016.0 |
| 20260503201559 | 50 | 196 | 2.0 | 6.0 | 0.00 | 0.00 | 0.00 | 50 | 1016.0 |
| 20260503200517 | 50 | 202 | 1.0 | 5.0 | 0.00 | 0.00 | 0.00 | 50 | 1016.1 |
| 20260503195515 | 50 | 225 | 1.0 | 6.0 | 0.00 | 0.00 | 0.00 | 50 | 1016.1 |
| 20260503194513 | 51 | 213 | 1.0 | 4.0 | 0.00 | 0.00 | 0.00 | 50 | 1016.2 |
| 20260503193511 | 51 | 212 | 1.0 | 2.0 | 0.00 | 0.00 | 0.00 | 50 | 1016.3 |
| 20260503192509 | 51 | 217 | 1.0 | 7.0 | 0.00 | 0.00 | 0.00 | 49 | 1016.3 |
| 20260503191548 | 51 | 207 | 2.0 | 6.0 | 0.00 | 0.00 | 0.00 | 49 | 1016.2 |
| 20260503190526 | 52 | 212 | 1.0 | 5.0 | 0.00 | 0.00 | 0.00 | 49 | 1016.2 |
| 20260503185503 | 52 | 209 | 1.0 | 3.0 | 0.00 | 0.00 | 0.00 | 48 | 1016.3 |
| 20260503184502 | 52 | 198 | 2.0 | 6.0 | 0.00 | 0.00 | 0.00 | 48 | 1016.3 |
| 20260503183459 | 53 | 211 | 2.0 | 11.0 | 0.00 | 0.00 | 0.00 | 48 | 1016.2 |
| 20260503182457 | 53 | 205 | 2.0 | 3.0 | 0.00 | 0.00 | 0.00 | 48 | 1016.2 |
| 20260503181456 | 54 | 202 | 1.0 | 5.0 | 0.00 | 0.00 | 0.00 | 47 | 1016.2 |
| 20260503180513 | 54 | 222 | 1.0 | 10.0 | 0.00 | 0.00 | 0.00 | 46 | 1016.3 |
| 20260503175511 | 55 | 192 | 2.0 | 11.0 | 0.00 | 0.00 | 0.00 | 45 | 1016.3 |
| 20260503174449 | 55 | 193 | 1.0 | 4.0 | 0.00 | 0.00 | 0.00 | 45 | 1016.3 |
| 20260503173448 | 56 | 215 | 1.0 | 7.0 | 0.00 | 0.00 | 0.00 | 44 | 1016.3 |
| 20260503172506 | 56 | 215 | 1.0 | 5.0 | 0.00 | 0.00 | 0.00 | 44 | 1016.3 |
| 20260503171444 | 57 | 225 | 1.0 | 2.0 | 0.00 | 0.00 | 0.00 | 44 | 1016.4 |
| 20260503170442 | 57 | 212 | 2.0 | 10.0 | 0.00 | 0.00 | 0.00 | 43 | 1016.5 |